Stündliche Wetter Ablezki

Heute, 23 Juni, Mittwoch

Zeit Temperatur Niederschläge Wind Luftdruck Luftfeuchtigkeit
00:00 +21°C° 0 mm 3 m/S 744 mmHg 90%
01:00 +21°C° 0 mm 2 m/S 745 mmHg 92%
02:00 +21°C° 0 mm 2 m/S 745 mmHg 94%
03:00 +21°C° 0 mm 2 m/S 745 mmHg 93%
04:00 +21°C° 0 mm 2 m/S 745 mmHg 92%
05:00 +23°C° 0 mm 2 m/S 745 mmHg 92%
06:00 +24°C° 0 mm 2 m/S 745 mmHg 85%
07:00 +26°C° 0 mm 3 m/S 745 mmHg 79%
08:00 +28°C° 0 mm 3 m/S 745 mmHg 73%
09:00 +29°C° 0 mm 3 m/S 745 mmHg 68%
10:00 +30°C° 0 mm 3 m/S 746 mmHg 63%
11:00 +32°C° 0 mm 4 m/S 746 mmHg 58%
12:00 +33°C° 0 mm 3 m/S 746 mmHg 55%
13:00 +33°C° 0 mm 3 m/S 746 mmHg 52%
14:00 +34°C° 0 mm 3 m/S 746 mmHg 49%
15:00 +34°C° 0 mm 2 m/S 745 mmHg 51%
16:00 +34°C° 0 mm 2 m/S 745 mmHg 54%
17:00 +33°C° 0 mm 1 m/S 745 mmHg 56%
18:00 +30°C° 0 mm 1 m/S 745 mmHg 62%
19:00 +28°C° 0 mm 2 m/S 745 mmHg 68%
20:00 +26°C° 0 mm 2 m/S 745 mmHg 74%
21:00 +25°C° 0 mm 2 m/S 745 mmHg 76%
22:00 +24°C° 0 mm 2 m/S 745 mmHg 79%
23:00 +23°C° 0 mm 2 m/S 745 mmHg 82%

Morgen, 24 Juni, Donnerstag

Zeit Temperatur Niederschläge Wind Luftdruck Luftfeuchtigkeit
00:00 +23°C° 0 mm 2 m/S 745 mmHg 85%
01:00 +23°C° 0 mm 2 m/S 745 mmHg 88%
02:00 +21°C° 0 mm 2 m/S 746 mmHg 90%
03:00 +23°C° 0 mm 2 m/S 746 mmHg 90%
04:00 +23°C° 0 mm 2 m/S 746 mmHg 90%
05:00 +23°C° 0 mm 1 m/S 746 mmHg 89%
06:00 +25°C° 0 mm 2 m/S 746 mmHg 84%
07:00 +27°C° 0 mm 2 m/S 746 mmHg 78%
08:00 +28°C° 0 mm 2 m/S 746 mmHg 72%
09:00 +29°C° 0 mm 2 m/S 746 mmHg 67%
10:00 +30°C° 0 mm 2 m/S 746 mmHg 61%
11:00 +33°C° 0 mm 3 m/S 746 mmHg 56%
12:00 +32°C° 0 mm 2 m/S 745 mmHg 53%
13:00 +34°C° 0 mm 2 m/S 745 mmHg 50%
14:00 +34°C° 0 mm 2 m/S 745 mmHg 47%
15:00 +34°C° 0 mm 2 m/S 745 mmHg 51%
16:00 +33°C° 0 mm 1 m/S 745 mmHg 54%
17:00 +33°C° 0 mm 1 m/S 744 mmHg 57%
18:00 +31°C° 0 mm 1 m/S 744 mmHg 62%
19:00 +29°C° 0 mm 1 m/S 744 mmHg 68%
20:00 +27°C° 0 mm 2 m/S 744 mmHg 73%
21:00 +26°C° 0 mm 1 m/S 744 mmHg 75%
22:00 +25°C° 0 mm 1 m/S 744 mmHg 77%
23:00 +24°C° 0 mm 1 m/S 744 mmHg 80%

übermorgen, 25 Juni, Freitag

Zeit Temperatur Niederschläge Wind Luftdruck Luftfeuchtigkeit
00:00 +24°C° 0.1 mm 1 m/S 744 mmHg 82%
01:00 +23°C° 0.1 mm 2 m/S 744 mmHg 84%
02:00 +23°C° 0.1 mm 2 m/S 744 mmHg 87%
03:00 +23°C° 0.7 mm 2 m/S 744 mmHg 88%
04:00 +23°C° 0.7 mm 1 m/S 744 mmHg 90%
05:00 +23°C° 0.7 mm 1 m/S 744 mmHg 91%
06:00 +25°C° 0 mm 2 m/S 744 mmHg 86%
07:00 +26°C° 0 mm 2 m/S 743 mmHg 80%
08:00 +28°C° 0 mm 3 m/S 743 mmHg 75%
09:00 +29°C° 0 mm 3 m/S 743 mmHg 68%
10:00 +31°C° 0 mm 3 m/S 743 mmHg 62%
11:00 +33°C° 0 mm 3 m/S 743 mmHg 55%
12:00 +33°C° 0 mm 3 m/S 743 mmHg 53%
13:00 +34°C° 0 mm 3 m/S 743 mmHg 51%
14:00 +34°C° 0 mm 3 m/S 743 mmHg 49%
15:00 +34°C° 0 mm 3 m/S 743 mmHg 53%
16:00 +32°C° 0 mm 2 m/S 742 mmHg 58%
17:00 +32°C° 0 mm 2 m/S 742 mmHg 62%
18:00 +28°C° 1.1 mm 3 m/S 742 mmHg 72%
19:00 +25°C° 1.1 mm 4 m/S 742 mmHg 82%
20:00 +21°C° 1.1 mm 4 m/S 742 mmHg 92%
21:00 +20°C° 0.6 mm 4 m/S 742 mmHg 92%
22:00 +19°C° 0.6 mm 3 m/S 741 mmHg 91%
23:00 +19°C° 0.6 mm 3 m/S 741 mmHg 91%

26 Juni, Samstag

Zeit Temperatur Niederschläge Wind Luftdruck Luftfeuchtigkeit
00:00 +18°C° 0 mm 3 m/S 741 mmHg 91%
01:00 +18°C° 0 mm 3 m/S 741 mmHg 90%
02:00 +18°C° 0 mm 2 m/S 741 mmHg 90%
03:00 +19°C° 0.5 mm 2 m/S 741 mmHg 90%
04:00 +19°C° 0.5 mm 2 m/S 741 mmHg 91%
05:00 +21°C° 0.5 mm 1 m/S 741 mmHg 92%
06:00 +21°C° 0.2 mm 2 m/S 741 mmHg 87%
07:00 +24°C° 0.2 mm 2 m/S 741 mmHg 82%
08:00 +25°C° 0.2 mm 2 m/S 741 mmHg 77%
09:00 +27°C° 0 mm 2 m/S 741 mmHg 71%
10:00 +29°C° 0 mm 2 m/S 741 mmHg 66%
11:00 +30°C° 0 mm 2 m/S 741 mmHg 60%
12:00 +31°C° 0.1 mm 2 m/S 741 mmHg 57%
13:00 +31°C° 0.1 mm 2 m/S 741 mmHg 55%
14:00 +32°C° 0.1 mm 2 m/S 741 mmHg 53%
15:00 +32°C° 0 mm 2 m/S 740 mmHg 55%
16:00 +32°C° 0 mm 1 m/S 740 mmHg 56%
17:00 +31°C° 0 mm 1 m/S 739 mmHg 58%
18:00 +29°C° 0.5 mm 1 m/S 739 mmHg 67%
19:00 +26°C° 0.5 mm 2 m/S 739 mmHg 75%
20:00 +22°C° 0.5 mm 3 m/S 740 mmHg 83%
21:00 +21°C° 1.5 mm 3 m/S 740 mmHg 86%
22:00 +20°C° 1.5 mm 2 m/S 740 mmHg 89%
23:00 +19°C° 1.5 mm 2 m/S 740 mmHg 92%

27 Juni, Sonntag

Zeit Temperatur Niederschläge Wind Luftdruck Luftfeuchtigkeit
00:00 +18°C° 0.2 mm 2 m/S 740 mmHg 93%
01:00 +19°C° 0.2 mm 1 m/S 740 mmHg 93%
02:00 +17°C° 0.2 mm 0 m/S 740 mmHg 93%
03:00 +19°C° 0 mm 1 m/S 740 mmHg 93%
04:00 +20°C° 0 mm 1 m/S 740 mmHg 93%
05:00 +19°C° 0 mm 2 m/S 740 mmHg 94%
06:00 +21°C° 0 mm 2 m/S 740 mmHg 88%
07:00 +23°C° 0 mm 2 m/S 740 mmHg 83%
08:00 +25°C° 0 mm 2 m/S 740 mmHg 78%
09:00 +26°C° 0 mm 2 m/S 740 mmHg 73%
10:00 +28°C° 0 mm 2 m/S 740 mmHg 68%
11:00 +29°C° 0 mm 2 m/S 740 mmHg 62%
12:00 +29°C° 0.1 mm 2 m/S 740 mmHg 61%
13:00 +30°C° 0.1 mm 2 m/S 740 mmHg 60%
14:00 +30°C° 0.1 mm 2 m/S 740 mmHg 58%
15:00 +29°C° 0.8 mm 2 m/S 740 mmHg 64%
16:00 +28°C° 0.8 mm 2 m/S 739 mmHg 69%
17:00 +28°C° 0.8 mm 1 m/S 739 mmHg 75%
18:00 +26°C° 1.8 mm 1 m/S 739 mmHg 81%
19:00 +24°C° 1.8 mm 1 m/S 739 mmHg 86%
20:00 +22°C° 1.8 mm 1 m/S 739 mmHg 92%
21:00 +22°C° 1.4 mm 1 m/S 739 mmHg 93%
22:00 +21°C° 1.4 mm 1 m/S 739 mmHg 94%
23:00 +21°C° 1.4 mm 1 m/S 739 mmHg 96%

28 Juni, Montag

Zeit Temperatur Niederschläge Wind Luftdruck Luftfeuchtigkeit
00:00 +20°C° 0.5 mm 1 m/S 739 mmHg 96%
01:00 +20°C° 0.5 mm 1 m/S 739 mmHg 97%
02:00 +20°C° 0.5 mm 1 m/S 739 mmHg 98%
03:00 +20°C° 0.3 mm 1 m/S 739 mmHg 97%
04:00 +20°C° 0.3 mm 1 m/S 739 mmHg 97%
05:00 +20°C° 0.3 mm 1 m/S 739 mmHg 97%
06:00 +20°C° 0.5 mm 1 m/S 739 mmHg 96%
07:00 +21°C° 0.5 mm 1 m/S 739 mmHg 96%
08:00 +20°C° 0.5 mm 2 m/S 739 mmHg 95%
09:00 +20°C° 0.2 mm 2 m/S 739 mmHg 93%
10:00 +21°C° 0.2 mm 2 m/S 740 mmHg 90%
11:00 +23°C° 0.2 mm 2 m/S 740 mmHg 88%
12:00 +23°C° 0.3 mm 2 m/S 740 mmHg 87%
13:00 +23°C° 0.3 mm 2 m/S 740 mmHg 85%
14:00 +23°C° 0.3 mm 2 m/S 740 mmHg 84%
15:00 +24°C° 0.1 mm 3 m/S 740 mmHg 81%
16:00 +25°C° 0.1 mm 3 m/S 739 mmHg 79%
17:00 +25°C° 0.1 mm 4 m/S 739 mmHg 76%
18:00 +24°C° 0 mm 3 m/S 739 mmHg 81%
19:00 +21°C° 0 mm 3 m/S 739 mmHg 85%
20:00 +20°C° 0 mm 2 m/S 739 mmHg 90%
21:00 +19°C° 0 mm 2 m/S 739 mmHg 91%
22:00 +18°C° 0 mm 2 m/S 739 mmHg 93%
23:00 +18°C° 0 mm 2 m/S 739 mmHg 94%
Mehr zeigen

Wir brauchen deine Erlaubnis

Meteoprog und unser Service Anbieter werden persönliche Daten aufbewahren, so wie Cookies, Geräte Bezeichnung oder ähnliche Technologien von deinem Gerät und Prozess, so wie Persönliche Daten Inhalte und Werbungen, genauso wie social Media und den Verkehr zu analysieren.

  • Aufbewahrung und/oder Zugang zu deiner Geräte Informationen.

    Cookies, Geräte Bezeichnung oder andere Informationen, können aufbewahrt oder Zugang zu deinem Gerät erhalten, für den Grund, der oben angegeben wird.

  • Personalisierte Werbung und Inhalte, Messungen, Einblick in das Publikum und Produkt Entwicklung.

    Werbungen und Inhalte können personalisiert werden, basierend auf ein Profil. Mehr Daten können besser personalisierte Werbungen und Inhalte hinzufügen. Werbung und Inhalte können gezeigt und gemessen werden. Einblicke über das Publikum, welche die Werbung gesehen haben und den Inhalt, können abgeleitet werden. So wie Daten können genutzt werden, um es zu verbessern oder die Benutzer Erfahrung zu verbessern das System und die Software.

Wenn du “Ich stimme zu” klickst, erlaubst du uns, die Cookies zu benutzen die Geräte Bezeichnung, den Web oder ähnliche Technologien zu benutzen. Deine Settings, können in deinem Gerät bei deinem Browser geändert werden.

Für den bestimmten Zweck, berechtigten Interessen beruhen darauf, mehr als auf den Inhalt. Du kannst mehr darüber in unseren Privaten und Cookie Politik lesen.